When you browse on this site, cookies collect data to enhance your experience and personalize the content and advertising you see.
Visit our Privacy Policy to learn more. By continuing to use the site, you agree to this use of cookies and data.
  • In Hungary
  • List of Countries
  • For 7 days
  • Water Temperature
  • Satellite Maps
  • Weather Map
  • News
  • Weather Widgets
  • user-avatar
    Login

    Hourly Weather Ipoh

    Today, 21 January, Monday

    Time Temperature Precipitation Wind Pressure Humidity
    00:00 +25°C° 0 mm 0 mps 755 mmHg 90%
    01:00 +26°C° 0 mm 1 mps 755 mmHg 89%
    02:00 +26°C° 0 mm 1 mps 755 mmHg 89%
    03:00 +26°C° 0 mm 1 mps 755 mmHg 90%
    04:00 +26°C° 0 mm 1 mps 754 mmHg 90%
    05:00 +26°C° 0 mm 1 mps 754 mmHg 89%
    06:00 +26°C° 0 mm 1 mps 755 mmHg 89%
    07:00 +26°C° 0 mm 1 mps 755 mmHg 88%
    08:00 +28°C° 0 mm 1 mps 755 mmHg 78%
    09:00 +31°C° 0 mm 1 mps 755 mmHg 69%
    10:00 +33°C° 0 mm 1 mps 755 mmHg 59%
    11:00 +34°C° 0 mm 1 mps 755 mmHg 56%
    12:00 +33°C° 0 mm 0 mps 755 mmHg 54%
    13:00 +33°C° 0 mm 0 mps 755 mmHg 51%
    14:00 +34°C° 0.3 mm 1 mps 754 mmHg 57%
    15:00 +33°C° 0.3 mm 1 mps 754 mmHg 63%
    16:00 +32°C° 0.3 mm 1 mps 753 mmHg 69%
    17:00 +31°C° 0.9 mm 1 mps 753 mmHg 76%
    18:00 +27°C° 0.9 mm 0 mps 754 mmHg 83%
    19:00 +26°C° 0.9 mm 0 mps 754 mmHg 90%
    20:00 +25°C° 0.7 mm 0 mps 755 mmHg 89%
    21:00 +25°C° 0.7 mm 0 mps 755 mmHg 89%
    22:00 +27°C° 0.7 mm 1 mps 756 mmHg 89%
    23:00 +27°C° 0 mm 1 mps 756 mmHg 89%

    Tomorrow, 22 January, Tuesday

    Time Temperature Precipitation Wind Pressure Humidity
    00:00 +24°C° 0 mm 0 mps 756 mmHg 89%
    01:00 +24°C° 0 mm 0 mps 756 mmHg 90%
    02:00 +26°C° 0 mm 1 mps 755 mmHg 89%
    03:00 +26°C° 0 mm 1 mps 755 mmHg 89%
    04:00 +25°C° 0 mm 1 mps 754 mmHg 89%
    05:00 +25°C° 0 mm 1 mps 755 mmHg 88%
    06:00 +25°C° 0 mm 1 mps 755 mmHg 87%
    07:00 +25°C° 0 mm 1 mps 755 mmHg 87%
    08:00 +26°C° 0 mm 0 mps 756 mmHg 76%
    09:00 +29°C° 0 mm 0 mps 756 mmHg 66%
    10:00 +31°C° 0 mm 0 mps 756 mmHg 56%
    11:00 +32°C° 0 mm 0 mps 756 mmHg 52%
    12:00 +34°C° 0 mm 0 mps 755 mmHg 48%
    13:00 +37°C° 0 mm 1 mps 755 mmHg 44%
    14:00 +36°C° 0 mm 1 mps 754 mmHg 46%
    15:00 +35°C° 0 mm 1 mps 754 mmHg 47%
    16:00 +33°C° 0 mm 0 mps 753 mmHg 49%
    17:00 +31°C° 0.1 mm 0 mps 753 mmHg 60%
    18:00 +31°C° 0.1 mm 1 mps 754 mmHg 71%
    19:00 +29°C° 0.1 mm 1 mps 754 mmHg 81%
    20:00 +26°C° 0.2 mm 0 mps 755 mmHg 83%
    21:00 +26°C° 0.2 mm 0 mps 756 mmHg 85%
    22:00 +25°C° 0.2 mm 0 mps 756 mmHg 87%
    23:00 +25°C° 0 mm 0 mps 756 mmHg 87%

    Day after tomorrow, 23 January, Wednesday

    Time Temperature Precipitation Wind Pressure Humidity
    00:00 +27°C° 0 mm 1 mps 756 mmHg 87%
    01:00 +26°C° 0 mm 1 mps 756 mmHg 87%
    02:00 +26°C° 0 mm 1 mps 755 mmHg 86%
    03:00 +26°C° 0 mm 1 mps 754 mmHg 85%
    04:00 +25°C° 0 mm 1 mps 754 mmHg 84%
    05:00 +25°C° 0 mm 1 mps 754 mmHg 83%
    06:00 +25°C° 0 mm 1 mps 754 mmHg 83%
    07:00 +25°C° 0 mm 1 mps 755 mmHg 83%
    08:00 +28°C° 0 mm 1 mps 755 mmHg 74%
    09:00 +31°C° 0 mm 1 mps 756 mmHg 65%
    10:00 +33°C° 0 mm 1 mps 756 mmHg 56%
    11:00 +34°C° 0 mm 1 mps 756 mmHg 54%
    12:00 +35°C° 0 mm 1 mps 755 mmHg 51%
    13:00 +36°C° 0 mm 1 mps 754 mmHg 48%
    14:00 +35°C° 0.2 mm 1 mps 754 mmHg 53%
    15:00 +34°C° 0.2 mm 1 mps 753 mmHg 59%
    16:00 +33°C° 0.2 mm 1 mps 752 mmHg 64%
    17:00 +31°C° 0.2 mm 1 mps 753 mmHg 71%
    18:00 +30°C° 0.2 mm 1 mps 753 mmHg 79%
    19:00 +26°C° 0.2 mm 0 mps 754 mmHg 86%
    20:00 +26°C° 0.1 mm 0 mps 754 mmHg 87%
    21:00 +25°C° 0.1 mm 0 mps 755 mmHg 89%
    22:00 +25°C° 0.1 mm 0 mps 756 mmHg 90%
    23:00 +25°C° 0 mm 0 mps 755 mmHg 90%

    24 January, Thursday

    Time Temperature Precipitation Wind Pressure Humidity
    00:00 +26°C° 0 mm 1 mps 755 mmHg 90%
    01:00 +26°C° 0 mm 1 mps 755 mmHg 90%
    02:00 +26°C° 0.1 mm 1 mps 754 mmHg 89%
    03:00 +26°C° 0.1 mm 1 mps 754 mmHg 88%
    04:00 +25°C° 0.1 mm 1 mps 754 mmHg 88%
    05:00 +25°C° 0 mm 1 mps 754 mmHg 87%
    06:00 +26°C° 0 mm 1 mps 754 mmHg 86%
    07:00 +26°C° 0 mm 1 mps 755 mmHg 86%
    08:00 +26°C° 0 mm 0 mps 755 mmHg 77%
    09:00 +29°C° 0 mm 0 mps 756 mmHg 67%
    10:00 +31°C° 0 mm 0 mps 756 mmHg 58%
    11:00 +32°C° 0 mm 0 mps 756 mmHg 55%
    12:00 +33°C° 0 mm 0 mps 755 mmHg 52%
    13:00 +36°C° 0 mm 1 mps 754 mmHg 49%
    14:00 +35°C° 0.2 mm 1 mps 754 mmHg 56%
    15:00 +33°C° 0.2 mm 1 mps 753 mmHg 63%
    16:00 +29°C° 0.2 mm 0 mps 752 mmHg 70%
    17:00 +28°C° 0.2 mm 0 mps 753 mmHg 75%
    18:00 +27°C° 0.2 mm 0 mps 753 mmHg 81%
    19:00 +26°C° 0.2 mm 0 mps 754 mmHg 87%
    20:00 +26°C° 0 mm 0 mps 754 mmHg 87%
    21:00 +25°C° 0 mm 0 mps 755 mmHg 87%
    22:00 +25°C° 0 mm 0 mps 756 mmHg 87%
    23:00 +25°C° 0 mm 0 mps 755 mmHg 87%

    25 January, Friday

    Time Temperature Precipitation Wind Pressure Humidity
    00:00 +25°C° 0 mm 0 mps 755 mmHg 87%
    01:00 +26°C° 0 mm 1 mps 755 mmHg 88%
    02:00 +26°C° 0 mm 1 mps 755 mmHg 88%
    03:00 +26°C° 0 mm 1 mps 754 mmHg 88%
    04:00 +26°C° 0 mm 1 mps 754 mmHg 88%
    05:00 +26°C° 0 mm 1 mps 754 mmHg 88%
    06:00 +26°C° 0 mm 1 mps 755 mmHg 87%
    07:00 +26°C° 0 mm 1 mps 755 mmHg 87%
    08:00 +28°C° 0 mm 1 mps 756 mmHg 77%
    09:00 +29°C° 0 mm 0 mps 756 mmHg 68%
    10:00 +31°C° 0 mm 0 mps 756 mmHg 58%
    11:00 +31°C° 0.4 mm 0 mps 756 mmHg 60%
    12:00 +33°C° 0.4 mm 1 mps 755 mmHg 61%
    13:00 +33°C° 0.4 mm 1 mps 754 mmHg 62%
    14:00 +33°C° 0.9 mm 1 mps 754 mmHg 66%
    15:00 +32°C° 0.9 mm 1 mps 753 mmHg 70%
    16:00 +31°C° 0.9 mm 1 mps 752 mmHg 73%
    17:00 +28°C° 0.4 mm 0 mps 753 mmHg 78%
    18:00 +27°C° 0.4 mm 0 mps 754 mmHg 83%
    19:00 +25°C° 0.4 mm 0 mps 754 mmHg 89%
    20:00 +25°C° 0 mm 0 mps 755 mmHg 89%
    21:00 +27°C° 0 mm 1 mps 755 mmHg 88%
    22:00 +26°C° 0 mm 1 mps 756 mmHg 88%
    23:00 +26°C° 0 mm 1 mps 755 mmHg 88%

    26 January, Saturday

    Time Temperature Precipitation Wind Pressure Humidity
    00:00 +26°C° 0 mm 1 mps 755 mmHg 87%
    01:00 +26°C° 0 mm 1 mps 755 mmHg 87%
    02:00 +26°C° 0 mm 1 mps 754 mmHg 86%
    03:00 +25°C° 0 mm 1 mps 754 mmHg 86%
    04:00 +25°C° 0 mm 1 mps 754 mmHg 85%
    05:00 +25°C° 0 mm 1 mps 754 mmHg 84%
    06:00 +25°C° 0 mm 1 mps 755 mmHg 83%
    07:00 +25°C° 0 mm 1 mps 755 mmHg 82%
    08:00 +28°C° 0 mm 1 mps 755 mmHg 73%
    09:00 +28°C° 0 mm 0 mps 756 mmHg 64%
    10:00 +31°C° 0 mm 0 mps 756 mmHg 55%
    11:00 +32°C° 0 mm 0 mps 755 mmHg 52%
    12:00 +35°C° 0 mm 1 mps 755 mmHg 49%
    13:00 +36°C° 0 mm 1 mps 754 mmHg 47%
    14:00 +35°C° 0.4 mm 1 mps 753 mmHg 53%
    15:00 +34°C° 0.4 mm 1 mps 753 mmHg 60%
    16:00 +33°C° 0.4 mm 1 mps 752 mmHg 67%
    17:00 +31°C° 1.1 mm 1 mps 753 mmHg 75%
    18:00 +29°C° 1.1 mm 1 mps 754 mmHg 83%
    19:00 +26°C° 1.1 mm 0 mps 754 mmHg 91%
    20:00 +25°C° 0.5 mm 0 mps 755 mmHg 91%
    21:00 +27°C° 0.5 mm 1 mps 755 mmHg 91%
    22:00 +27°C° 0.5 mm 1 mps 756 mmHg 91%
    23:00 +26°C° 0.1 mm 1 mps 755 mmHg 91%
    Show more